Погода в Молодежном

Россия / Саратовская область     51°56′46″N   49°32′24″E
темп.,
°C
ветер,
м/с
пор.,
м/с
влажн.,
%
обл.,
%
осадки,
мм/ч
давл.,
гПа
погр.,
м
26 января, вт
вт2601:00−2ююв51193100 0.0 1029443
04:00−4ююв5119593 0.0 1028312
07:00−3ююв6109487 0.0 1028395
10:00−4ююв6109694 0.0 1028438
13:00−3ююв71194100 0.0 1028470
16:00−3ю61092100 0.1 1027523
19:00−4ююв71492100 0.0 1027412
22:00−4ю51191100 0.0 1027346
27 января, ср
ср2701:00−4ююв61291100 0.0 1027285
04:00−5ююв61192100 0.0 1027304
07:00−6ююв61294100 0.0 1027301
10:00−6ююв6119598 0.0 1027323
13:00−5ююв61291100 0.0 1027363
16:00−5ююв61291100 0.0 1025355
19:00−5ююв61493100 0.0 1025359
22:00−5ююв71392100 0.0 1024348
28 января, чт
чт2801:00−6ююв61291100 0.0 1024309
04:00−8ююв51091100 0.0 1023273
07:00−9юв51093100 0.0 1022269
10:00−8юв51193100 0.0 1021300
13:00−7юв61091100 0.0 1020351
16:00−6юв41092100 0.0 1019371
19:00−8вюв41094100 0.0 1018219
22:00−8вюв4995100 0.0 1017195
29 января, пт
пт2901:00−7вюв4995100 0.0 1015224
04:00−6вюв51094100 0.0 1013326
07:00−5вюв51094100 0.0 1011381
10:00−5вюв51191100 0.0 1010364
13:00−3юв6996100 1.3 1008485
16:00−2юв4797100 3.4 1006409
19:00−2ююв2498100 2.2 1006145
22:00−3юз4897100 2.3 1007174
30 января, сб
сб3001:00−6юз349347 0.0 100937
04:00−7ю349543 0.0 101052
07:00−6ю489437 0.0 1010136
10:00−4ю6119260 0.0 1011272
13:00−1ю71292100 0.0 1011465
16:00+1ююз51296100 0.0 1010615
19:00+1ю61297100 0.0 1011474
22:00−1ююв61293100 0.0 1011300